Temp
19 19 20 20 19 19 19 19 19 19 19 19 19 19 19 19 18 18 18 18 18 18 18 18 17 17 17 17 17 17 18 18 18 18 18 18 18 19 18 18 17 17 17
19 20 20 20 19 19 19 19 19 19 19 19 19 19 19 19 19 18 18 18 18 18 18 18 18 18 18 18 18 18 18 18 18 19 18 18 18 18 19 18 18 17 17
20 20 20 20 20 19 19 19 19 19 19 19 19 19 18 18 18 18 18 18 18 18 18 18 18 18 18 18 18 18 18 18 19 19 19 18 18 18 19 19 18 18 17
21 20 20 19 19 19 19 19 19 19 19 19 18 18 18 18 18 19 19 19 18 18 18 18 18 18 18 18 18 18 18 18 19 19 19 19 19 18 18 19 18 18 17
20 20 19 19 19 19 19 19 19 19 19 18 18 18 18 18 18 18 19 18 18 18 18 18 18 18 18 18 18 18 18 18 18 19 19 19 19 19 19 18 18 17 17
20 20 19 19 19 19 19 18 19 19 19 19 19 19 19 19 19 19 18 18 18 18 18 18 18 18 18 18 18 18 18 18 18 18 19 19 19 19 19 19 18 18 17
20 20 19 19 19 19 19 19 19 19 19 19 19 19 19 19 19 19 19 18 18 18 18 18 18 18 18 18 18 18 18 17 17 18 18 19 19 19 19 19 19 18 17
20 19 19 19 19 19 19 19 19 19 19 19 19 19 19 19 19 18 18 18 18 18 18 18 18 18 18 18 18 18 18 17 17 17 18 19 19 19 19 19 19 18 17
19 19 19 18 19 19 19 19 19 19 19 19 19 18 18 18 18 17 17 17 17 17 18 18 18 18 18 18 18 18 18 17 17 18 18 18 19 18 19 18 19 19 17
19 19 18 19 19 19 19 19 19 19 18 18 17 17 17 17 17 17 17 17 16 16 16 16 16 17 17 17 17 18 18 18 18 18 18 18 19 18 18 18 18 18 18
19 18 18 18 19 19 19 19 18 18 17 17 17 17 17 17 17 16 16 16 16 16 16 16 16 16 16 16 16 17 17 18 18 18 18 18 18 18 18 18 18 17 17
19 19 19 18 18 18 18 18 17 17 17 16 16 17 16 16 16 16 16 16 16 15 15 15 15 15 15 15 15 16 16 17 17 17 18 18 18 18 17 17 17 17 17
18 18 18 18 18 18 18 18 17 17 17 16 16 16 16 16 16 15 15 15 15 15 15 15 14 14 14 14 15 15 15 16 16 16 17 17 17 17 17 16 16 16 17
18 18 18 18 18 18 18 17 17 17 16 16 15 15 15 15 15 14 14 14 14 14 14 14 14 13 13 14 14 14 15 15 15 16 16 16 16 16 16 16 16 15 15
18 17 17 18 18 18 18 17 17 16 16 15 15 15 14 14 14 13 13 13 13 13 13 13 13 13 13 13 13 14 14 14 15 15 15 15 15 15 15 15 15 15 15
18 17 17 18 18 18 17 17 16 16 15 15 15 15 14 13 13 12 12 12 12 12 12 12 12 12 13 13 13 13 14 14 14 15 14 14 14 14 14 14 15 15 14
18 17 18 18 17 17 17 16 16 16 15 15 15 15 14 13 13 12 12 12 12 12 12 12 12 12 12 13 13 13 13 14 14 14 14 14 14 14 14 14 14 14 14
18 17 17 17 17 16 16 16 16 15 15 15 15 14 13 13 12 12 11 11 12 12 12 12 12 12 12 12 13 13 13 13 14 14 14 14 14 14 13 13 13 13 13
18 18 17 17 17 16 16 16 16 15 15 15 14 14 13 13 12 11 11 11 11 12 12 12 12 11 12 12 12 12 13 13 13 13 13 13 13 13 13 13 13 13 14
18 18 17 17 16 16 16 15 15 15 15 14 14 14 13 13 12 11 11 11 11 11 11 12 11 11 11 11 12 12 13 14 13 13 13 14 14 13 14 13 13 13 13
18 17 17 16 16 15 15 15 15 15 15 15 14 14 13 12 12 11 11 10 11 11 11 11 11 11 11 11 11 12 13 13 13 13 13 13 13 13 14 14 14 13 13
17 17 16 16 15 15 15 15 14 14 14 14 14 13 13 12 12 11 10 10 10 10 10 10 11 11 10 10 10 9 8 12 12 12 12 13 13 13 13 13 13 13 13
17 16 16 16 15 15 15 14 14 14 14 14 14 13 13 13 12 11 11 10 10 10 10 10 10 10 10 10 11 10 8 7 8 11 11 11 12 12 13 13 13 13 12
16 16 16 15 15 15 14 14 13 13 13 13 13 13 13 13 12 12 11 11 10 9 9 9 10 10 10 10 10 11 11 10 7 7 10 11 11 12 12 13 12 12 12
15 15 15 15 15 14 14 14 13 13 13 13 13 13 13 13 13 12 12 11 10 10 9 9 9 9 10 10 10 10 10 10 10 10 9 9 10 11 12 12 11 12 12
15 15 14 14 14 14 14 14 14 13 13 13 13 12 12 12 12 12 12 11 11 10 9 9 9 9 9 9 9 9 9 9 10 9 9 10 10 10 11 12 11 12 11
Height
840 840 840 841 842 843 845 846 846 846 846 845 844 844 844 844 843 842 842 841 840 840 839 839 838 837 837 836 835 834 833 833 833 832 832 832 831 831 831 830 829 829 828
838 840 841 842 843 844 846 846 847 847 846 846 846 845 845 845 844 843 843 842 841 840 840 839 838 837 837 836 835 835 834 833 833 832 832 832 831 831 831 830 830 829 829
838 841 842 843 844 845 846 847 847 847 847 847 847 846 846 846 845 844 843 843 842 841 840 839 838 837 837 836 835 835 834 833 832 832 831 831 831 831 831 830 829 829 828
838 841 843 844 845 846 847 847 848 848 848 847 847 847 846 846 845 844 843 842 841 841 840 839 838 837 836 836 835 834 834 833 832 832 831 830 829 829 830 829 829 828 828
838 841 843 845 846 847 848 848 848 848 848 848 848 847 847 846 845 844 843 842 841 840 839 838 837 836 836 835 834 834 832 832 831 830 830 829 829 829 828 828 828 828 827
838 841 843 845 846 847 848 848 848 849 848 848 848 847 847 846 845 844 843 842 841 840 838 837 836 835 834 833 832 832 831 830 829 829 828 828 827 827 827 827 827 826 826
838 841 844 846 847 847 848 849 849 849 848 848 848 847 846 845 844 843 842 841 840 839 837 836 835 834 832 831 831 830 829 828 827 827 826 825 825 825 825 825 825 825 825
838 841 844 846 848 848 849 849 850 849 849 848 848 847 846 845 843 843 841 840 839 838 836 835 833 832 831 830 829 828 827 826 825 824 824 823 823 823 822 822 822 821 822
840 842 845 847 848 849 850 850 850 850 849 848 847 846 845 844 843 842 841 839 838 836 835 833 831 830 829 827 826 825 824 824 823 822 821 820 819 820 820 819 818 818 818
841 844 846 847 849 850 850 850 850 850 849 848 846 845 844 843 843 842 840 839 837 835 834 832 830 828 826 825 823 822 821 820 820 819 817 816 817 816 816 816 815 815 815
842 846 848 848 849 850 850 850 850 849 849 848 846 845 844 842 842 841 839 838 836 834 832 831 829 827 825 823 821 820 819 817 817 816 814 813 813 813 813 813 813 813 812
844 846 848 848 849 849 850 850 850 850 849 848 846 845 843 841 841 839 837 836 834 832 831 829 828 826 824 822 820 818 816 815 814 813 813 811 809 809 810 810 810 809 809
844 846 847 848 849 849 850 850 849 849 848 848 847 844 843 841 840 838 836 834 832 830 829 827 825 824 822 820 818 816 814 813 811 810 809 809 808 807 807 807 807 806 806
843 845 846 848 849 848 849 849 849 849 848 848 846 844 841 841 838 837 834 832 830 829 827 825 823 821 820 818 816 814 813 811 809 808 807 806 806 805 805 805 804 804 804
842 845 846 847 848 848 848 849 848 849 848 847 845 844 842 840 838 836 834 832 830 828 826 823 822 819 818 816 814 812 810 809 808 806 805 804 803 803 803 803 802 802 801
841 844 845 846 847 847 848 848 848 848 847 846 845 843 842 839 838 836 834 831 830 828 825 823 821 819 817 815 812 810 808 807 805 805 804 803 802 801 801 800 800 800 800
841 843 844 845 847 846 847 847 847 846 846 845 844 842 841 839 838 836 833 831 830 827 825 823 822 820 817 814 811 808 807 805 804 803 802 802 801 800 799 799 799 798 798
840 842 844 844 846 846 847 846 846 846 845 844 843 842 840 839 837 835 833 831 830 828 826 823 821 819 817 814 810 807 805 803 802 802 802 801 800 800 799 798 798 797 797
839 840 842 844 844 846 846 846 846 845 845 844 842 841 840 838 836 834 833 831 829 827 826 824 822 819 816 813 809 805 804 802 803 802 802 801 800 799 799 797 797 797 796
838 839 841 843 843 845 845 845 845 844 844 843 841 840 839 837 835 834 832 830 828 827 825 823 822 819 816 813 808 803 801 802 803 803 802 802 801 799 798 797 797 796 796
836 838 839 841 842 843 844 844 844 843 843 842 841 839 838 836 835 833 831 829 828 827 825 824 821 819 816 813 808 802 802 803 803 803 803 801 800 799 798 798 797 796 795
833 836 838 839 841 842 842 842 842 842 841 840 839 838 836 835 833 831 830 828 827 826 825 824 822 820 819 815 813 809 809 807 805 805 804 802 800 799 797 797 797 796 795
831 833 836 837 839 840 841 841 841 840 839 838 837 836 835 833 832 830 828 828 827 826 824 823 822 821 819 817 815 814 814 816 811 806 804 803 801 800 798 798 797 796 796
830 832 834 836 838 839 839 839 839 838 837 837 836 834 833 831 830 828 827 827 826 825 824 823 821 820 819 819 817 815 816 815 816 813 805 804 802 800 799 799 798 796 796
829 831 833 835 836 837 837 838 837 836 836 835 834 832 831 829 828 826 825 824 823 823 822 822 821 819 819 818 818 817 816 815 814 814 811 807 802 801 799 800 799 796 795
829 830 832 833 834 835 835 835 835 834 833 832 831 830 828 826 825 824 823 822 822 821 820 819 819 818 817 817 817 816 815 815 814 813 812 809 808 802 799 798 798 797 795
Wind_Speed
14 13 11 12 13 13 12 11 13 11 12 11 9 9 9 8 8 8 9 9 9 8 9 9 9 8 8 7 7 6 5 5 5 5 5 5 6 5 5 10 4 7 7
19 14 13 14 14 14 12 11 11 10 10 12 12 10 8 8 7 8 6 6 7 7 7 8 8 8 8 7 6 5 4 4 5 5 4 3 1 2 2 2 3 5 6
20 17 15 15 14 13 12 11 11 11 11 11 10 9 9 8 7 7 5 5 5 6 6 7 7 7 7 7 7 6 5 5 4 4 4 7 6 3 3 2 0 2 3
21 18 17 15 15 13 12 11 10 9 9 9 8 8 8 8 8 8 8 5 5 6 7 7 7 7 7 8 8 7 7 7 6 4 3 7 2 5 3 4 4 2 2
20 18 16 14 13 11 10 9 8 8 7 7 7 7 7 6 8 8 7 4 5 6 7 8 8 9 9 9 9 9 9 9 8 7 3 4 4 7 8 5 6 6 5
21 18 16 14 12 11 10 10 8 6 6 6 6 6 5 6 6 7 7 6 6 7 6 8 9 10 11 11 12 12 11 10 10 9 7 7 8 11 9 8 8 7 8
20 17 15 12 11 10 9 7 6 5 5 5 5 5 6 7 7 8 8 8 9 9 9 10 10 10 10 11 13 14 14 13 13 12 9 7 8 11 10 10 11 9 10
19 18 15 11 10 9 8 7 5 5 5 6 6 7 7 8 8 9 9 10 11 12 12 12 13 14 14 14 14 14 14 14 15 16 14 10 9 14 16 14 14 12 11
17 16 14 11 9 8 7 5 5 5 6 6 7 8 9 8 8 9 13 13 14 17 15 15 15 15 16 17 17 16 16 15 15 17 18 18 16 14 16 16 15 13 13
17 14 13 11 8 6 5 4 5 6 7 7 8 8 8 8 10 11 14 13 15 14 16 16 14 14 15 16 16 16 15 17 15 17 19 20 18 19 18 17 16 15 13
17 14 13 9 6 5 5 5 6 7 8 9 9 9 7 7 9 10 13 13 13 16 17 15 14 16 15 16 14 13 14 12 14 17 19 17 18 18 18 16 16 15 13
18 15 12 9 7 5 2 4 6 6 7 7 10 11 10 9 9 10 10 12 13 15 15 14 17 15 15 16 16 16 15 14 14 14 13 12 13 16 15 13 13 13 15
17 14 11 8 6 4 2 3 4 5 6 6 10 11 13 13 11 12 13 14 15 15 16 18 16 16 17 18 18 16 15 15 15 15 14 13 13 8 9 9 10 13 17
16 12 9 7 4 3 2 2 3 5 6 8 8 11 14 15 15 15 16 16 15 15 17 16 18 19 18 18 17 16 16 16 16 16 16 14 12 8 7 9 10 12 14
14 11 8 6 3 2 3 1 2 4 6 8 9 10 13 15 16 17 17 17 15 15 16 19 19 18 18 17 17 16 14 15 14 14 14 14 12 10 8 9 10 12 13
13 11 8 6 3 2 1 2 3 5 7 8 9 11 12 14 17 17 18 16 15 17 19 16 15 17 17 17 17 16 15 14 12 11 11 11 11 11 10 8 9 9 9
13 11 9 6 4 1 1 2 3 7 9 8 10 11 12 14 16 15 17 14 15 18 16 14 15 16 17 18 17 17 16 14 12 9 10 9 9 8 8 7 7 5 8
14 12 9 6 5 3 2 3 6 7 8 8 11 11 12 15 13 15 16 12 14 16 14 17 14 17 18 19 19 20 15 14 8 7 7 7 7 9 9 6 5 6 9
14 12 10 9 6 4 4 4 5 6 8 8 12 12 14 16 12 15 14 12 12 14 15 15 15 15 18 21 21 18 16 6 5 5 7 8 8 9 8 7 4 4 7
12 11 10 8 7 6 3 3 5 7 7 8 12 13 16 14 13 13 12 11 12 13 13 15 15 18 17 21 20 22 6 2 4 5 7 8 11 10 8 7 6 6 8
12 12 11 10 7 6 4 5 5 5 8 10 11 12 12 14 14 13 11 11 11 12 14 15 15 17 19 23 14 17 10 4 3 2 6 8 9 13 9 8 7 7 6
14 12 11 10 8 7 6 5 5 7 7 10 10 11 12 13 15 12 12 11 11 11 12 13 14 14 13 18 12 5 4 4 12 10 12 12 14 13 8 9 9 7 6
12 11 10 10 9 8 7 7 7 7 8 9 12 12 14 14 13 12 11 11 9 10 11 11 11 11 13 15 17 5 3 2 6 5 10 15 16 13 12 7 6 5 8
8 9 9 8 8 8 7 7 7 8 11 12 13 14 16 14 14 13 12 12 10 10 10 10 10 10 9 9 12 11 5 4 2 4 7 13 18 13 12 8 4 5 8
7 8 8 8 7 6 7 8 8 10 11 14 15 16 15 15 14 13 13 13 12 9 9 10 11 10 9 8 8 8 6 6 4 2 4 11 19 18 15 11 3 4 6
7 6 6 6 5 6 7 7 8 11 14 16 18 17 17 15 13 13 15 15 13 12 9 9 10 10 10 9 9 8 7 4 5 2 2 6 10 13 17 17 8 5 8
Wind_Direction
133 128 124 119 115 112 111 101 94 82 80 70 85 73 66 68 62 58 55 54 53 55 51 48 47 47 45 45 46 45 37 35 34 29 28 45 53 56 77 70 68 65 62
133 127 121 117 114 113 113 104 97 83 80 77 80 60 69 67 49 48 43 44 45 45 41 39 37 34 31 30 26 20 10 3 9 10 2 352 348 43 46 96 62 68 67
129 124 119 117 114 112 108 101 92 83 77 75 74 72 71 62 60 44 23 17 21 20 15 16 16 14 12 11 7 2 349 333 335 350 351 336 281 250 327 314 11 52 56
128 125 120 116 112 109 105 100 94 87 80 73 68 66 60 51 39 32 33 16 359 358 354 348 347 349 348 347 346 342 337 330 324 316 340 7 326 225 265 316 288 280 330
130 128 123 118 114 110 107 103 92 82 79 72 67 60 52 37 20 13 18 22 339 337 335 331 326 325 327 328 326 324 322 321 321 317 276 311 303 266 281 297 292 255 264
132 130 126 128 124 122 116 111 112 94 77 61 47 36 20 6 2 356 352 346 332 322 319 312 312 309 309 312 312 310 310 309 309 310 285 282 293 270 276 279 291 268 244
135 136 134 134 128 123 116 108 97 83 69 52 35 23 10 2 356 348 340 334 327 321 317 313 308 305 300 297 299 297 294 295 296 298 297 274 290 268 267 274 287 272 258
139 140 137 134 128 120 111 97 81 62 46 29 16 7 358 351 351 347 335 330 325 323 314 307 303 300 297 297 298 296 294 290 289 287 286 274 269 265 274 274 281 270 261
132 137 134 129 123 116 104 87 61 34 21 16 12 12 16 7 359 349 339 335 328 323 317 312 308 304 302 300 298 296 294 290 286 288 284 275 273 266 256 251 270 275 268
130 127 127 127 118 105 94 62 42 27 19 18 14 10 13 11 350 342 335 341 340 343 344 338 328 325 323 320 312 304 302 289 286 293 289 276 280 273 267 251 261 268 273
127 130 136 127 112 86 63 36 27 24 15 8 355 357 352 352 351 344 342 343 338 337 339 338 336 328 328 326 325 322 319 319 290 304 310 284 284 283 280 263 272 280 282
138 134 147 139 130 120 53 30 30 12 13 1 351 350 356 349 338 335 336 333 331 335 332 332 328 328 320 323 326 315 309 316 311 312 316 330 291 280 281 285 287 291 297
144 152 153 149 142 131 104 56 24 9 4 352 343 351 349 348 340 335 326 327 328 332 329 325 327 324 323 319 316 312 316 314 309 303 308 318 322 313 298 303 301 294 290
155 154 149 151 146 121 86 55 31 5 0 347 353 344 347 343 345 341 337 337 335 334 332 330 324 325 329 330 330 326 319 316 309 307 304 311 331 331 306 305 307 309 308
157 159 155 154 151 130 82 53 30 353 340 347 345 341 340 343 345 342 342 343 344 340 335 328 328 334 336 336 329 332 325 320 320 315 313 307 307 323 319 305 306 306 307
164 167 167 170 166 128 97 43 12 348 347 340 337 343 342 345 343 344 345 350 348 339 334 341 344 342 341 339 337 334 332 329 330 321 321 320 317 314 322 321 310 313 314
173 175 181 179 195 161 314 3 345 339 329 329 341 351 349 339 341 341 343 348 349 347 348 355 353 349 344 341 338 335 331 330 331 339 333 345 348 341 333 342 337 326 330
179 183 187 198 199 202 253 322 334 325 336 343 351 346 338 336 340 338 344 350 350 348 353 346 350 346 346 341 334 334 328 327 338 4 12 11 7 353 344 341 10 354 348
181 191 193 206 209 222 253 312 326 345 346 344 349 338 336 335 341 337 343 346 344 343 348 349 346 356 349 351 343 336 325 349 351 32 23 28 24 9 4 6 353 12 15
186 197 201 215 215 236 272 291 310 299 313 328 328 331 329 337 337 335 341 344 340 347 348 356 359 353 351 351 341 337 17 4 69 32 34 34 21 10 5 19 27 30 25
181 188 199 210 224 235 243 276 293 297 303 318 326 330 332 339 338 336 338 334 332 347 348 351 353 348 350 355 349 358 29 104 50 145 19 32 20 17 35 30 27 32 47
194 207 216 228 226 224 243 263 286 302 310 320 323 318 326 323 328 330 332 334 333 337 340 340 346 345 346 354 349 342 3 12 12 73 43 30 10 27 22 41 45 43 29
193 206 216 218 218 225 245 266 283 295 305 315 321 316 321 321 324 327 325 321 333 326 325 327 333 339 339 345 352 34 5 339 338 338 14 16 8 22 34 33 52 37 14
181 195 201 205 214 227 247 268 282 290 299 309 311 310 311 317 317 313 312 313 307 318 310 317 320 324 333 340 344 6 360 357 349 328 329 354 4 12 13 24 83 46 28
165 174 173 193 220 237 252 268 276 285 294 302 305 304 302 305 307 298 294 299 306 303 298 303 308 309 314 316 320 321 323 322 285 299 307 335 351 352 348 359 135 29 28
146 160 184 209 233 252 259 271 284 294 305 307 309 307 310 306 303 296 289 291 288 306 305 290 298 300 302 295 291 294 293 294 301 303 300 324 323 329 338 350 164 29 32